SCP
0 0 0 0 0 0 0 0 0 0 0 0 0 0 0 0 0 0 0 0 0 0 0 0 0 0 0 0 1 1 1 1 1 1 1 1 1 1 1 1 0 0 0
0 0 0 0 0 0 0 0 0 0 0 -0 0 0 0 0 0 0 0 0 0 0 0 0 0 0 0 0 1 1 1 1 1 1 1 1 1 1 1 1 0 0 0
0 0 0 0 0 0 0 0 0 0 0 -0 -0 -0 -0 0 0 0 0 0 0 0 0 0 0 0 0 0 0 1 1 1 1 1 1 1 1 1 1 0 0 0 0
0 0 0 0 0 0 0 0 0 0 -0 0 -0 -0 -0 0 0 0 0 0 0 0 0 0 0 0 0 0 0 0 1 1 1 1 1 1 1 1 1 1 1 0 0
0 0 0 0 0 0 0 0 0 0 0 0 0 0 0 0 0 0 0 0 0 0 0 0 0 0 0 0 0 0 0 0 1 1 1 1 1 1 1 1 1 0 0
0 0 0 0 0 0 0 0 0 0 0 0 0 0 0 0 0 0 0 0 0 0 0 0 0 0 0 0 0 0 0 0 0 1 1 1 1 1 1 1 1 1 0
0 0 0 0 0 0 -0 -0 0 0 0 0 0 0 0 0 -0 0 0 0 0 0 0 0 0 0 0 0 0 0 0 0 0 0 1 1 1 1 1 1 1 0 0
0 0 0 0 0 0 -0 -0 0 0 0 0 0 0 0 0 0 0 -0 0 0 0 0 0 0 0 0 0 -0 -0 0 0 0 0 0 1 1 1 1 1 2 1 0
0 0 0 0 0 0 0 0 0 0 0 0 0 0 0 0 0 -0 0 0 0 0 0 0 0 0 0 0 0 0 0 0 0 0 1 1 1 1 1 1 2 1 0
0 0 0 0 0 0 0 0 0 0 0 0 0 0 0 0 0 0 0 0 0 -0 0 0 -0 0 0 0 0 0 -0 0 0 0 0 1 1 1 1 1 1 1 0
0 0 0 0 0 0 0 0 0 0 0 0 0 0 0 0 0 0 0 0 0 0 0 0 0 0 0 0 0 -0 -0 -0 0 0 0 0 0 1 1 1 1 1 1
0 0 0 0 0 0 0 0 0 0 0 0 0 0 0 0 0 0 0 0 0 0 0 0 0 0 0 0 0 0 -0 -0 -0 0 0 0 0 0 0 1 1 1 1
0 0 0 0 0 0 0 0 0 0 0 0 0 0 0 0 0 0 0 0 0 0 0 0 0 0 0 0 0 0 0 -0 -0 -0 0 0 0 0 0 0 0 1 1
0 0 0 0 0 0 0 0 0 0 0 0 0 0 0 0 0 0 0 0 0 0 0 0 0 0 0 0 0 0 0 0 0 -0 -0 0 0 0 0 0 0 0 0
0 0 0 0 0 0 0 0 0 0 0 0 0 0 0 0 0 0 0 0 0 0 0 0 0 0 0 0 0 0 0 -0 0 -0 -0 0 0 0 0 0 0 0 0
0 0 0 0 0 0 0 0 0 0 0 0 0 0 0 0 0 0 0 0 0 0 0 0 0 0 0 0 0 0 0 0 0 0 0 0 0 0 0 0 0 0 0
0 0 0 0 0 0 0 0 0 0 0 0 0 0 0 0 0 0 0 0 0 0 1 0 0 0 0 0 0 0 0 0 -0 -0 0 0 0 0 0 0 0 0 0
0 0 0 0 0 0 0 0 0 0 0 0 0 0 0 0 0 0 0 0 0 0 1 0 0 0 0 0 0 0 0 0 0 -0 0 0 0 0 0 0 0 0 0
0 0 0 0 0 0 0 0 0 0 0 0 0 0 0 0 0 0 0 0 0 0 0 0 0 0 0 0 0 -0 -0 -0 -0 0 0 0 0 0 0 0 0 0 0
0 0 0 0 0 0 0 0 0 0 0 0 0 0 0 0 0 0 0 0 0 0 0 0 0 0 0 0 0 0 -0 -0 0 0 -0 -0 -0 0 0 0 0 0 0
0 0 0 0 0 0 0 0 0 0 0 0 0 0 0 0 0 0 0 0 0 0 0 0 0 0 0 0 0 0 0 -0 0 -0 -0 -0 -0 0 -0 0 0 0 0
0 0 0 0 0 0 0 0 0 0 0 0 0 0 0 0 0 0 0 0 0 0 0 0 0 0 0 0 0 -0 -0 0 -0 -0 -0 -0 -0 -0 -0 -0 0 0 0
0 0 0 0 0 0 0 0 0 0 0 0 0 0 0 0 0 0 0 0 0 0 -0 0 0 0 0 0 0 -0 -0 0 0 -0 -0 -0 -0 -0 -0 -0 0 0 0
0 0 0 0 0 0 0 0 0 0 0 0 0 0 0 0 0 0 0 0 0 0 0 0 0 0 -0 0 0 0 -0 0 0 0 -0 -0 -0 -0 -0 0 0 0 0
0 0 0 0 0 0 0 0 0 0 0 0 0 0 0 0 0 0 0 0 0 0 0 0 0 0 0 -0 0 0 -0 0 -0 -0 -0 -0 -0 -0 -0 0 0 0 0
0 0 0 0 0 0 0 0 0 0 0 0 0 0 0 0 0 0 0 0 0 0 0 0 0 0 -0 -0 0 0 0 -0 0 -0 -0 -0 -0 -0 -0 0 0 0 0
Wind_Speed_500mb
19 21 25 29 35 38 41 42 44 43 43 43 44 48 51 53 55 58 62 61 60 62 66 67 74 77 77 76 77 81 79 78 78 76 79 77 78 80 88 90 87 79 69
19 23 26 31 38 43 46 46 48 51 52 52 51 50 52 55 57 60 64 65 64 65 62 64 67 69 77 77 76 80 82 81 83 83 81 84 86 85 93 101 101 87 76
21 23 29 36 42 47 50 50 51 53 55 56 59 61 61 61 61 62 63 66 67 66 65 64 63 63 65 73 80 76 82 86 89 86 87 85 91 91 94 101 116 95 82
21 24 29 35 42 47 49 49 50 55 58 62 68 69 70 70 69 66 68 68 68 71 70 68 69 69 64 65 72 82 82 85 90 93 90 89 93 99 100 100 97 95 88
22 26 33 39 44 48 50 51 53 57 63 67 69 74 78 80 76 72 65 60 59 62 66 63 62 64 69 66 68 75 84 89 92 96 97 96 93 98 106 110 114 106 84
24 28 35 41 45 49 49 52 56 56 61 65 73 78 76 84 72 53 64 57 46 48 65 70 65 63 66 68 72 66 80 88 92 97 103 102 101 100 104 114 121 118 110
29 31 37 43 47 50 50 50 53 56 58 61 72 76 88 41 69 52 50 41 48 68 61 61 73 73 68 67 60 71 70 76 94 97 101 107 108 106 103 116 110 113 105
32 36 38 42 46 48 45 46 50 56 59 57 54 69 39 65 6 16 39 61 52 54 67 52 51 59 71 76 85 75 69 71 71 93 102 108 112 112 108 111 128 134 132
37 39 41 42 45 45 45 46 50 55 59 58 49 36 30 25 78 41 38 55 40 41 66 84 74 78 86 71 77 81 86 77 81 82 91 105 111 114 113 111 131 145 127
40 41 42 42 43 43 45 51 54 60 63 65 57 51 46 54 30 71 57 85 94 66 67 90 81 72 76 76 89 102 107 97 84 86 90 98 108 115 116 115 116 139 145
44 44 40 41 43 47 48 55 60 62 65 63 58 58 62 64 60 57 100 83 87 76 73 85 110 101 106 96 93 90 92 82 97 88 97 95 101 110 113 115 124 142 144
45 43 41 42 45 51 56 62 66 68 66 66 65 65 69 65 54 52 68 114 86 104 104 104 101 110 84 87 108 116 104 105 108 100 102 112 105 103 113 114 120 124 146
44 41 42 45 49 57 62 65 68 69 69 70 69 70 70 77 81 70 65 100 113 127 100 107 114 105 113 103 104 110 114 105 97 87 91 112 113 116 109 118 115 126 126
40 42 43 45 52 59 65 69 71 71 68 69 68 66 73 80 81 83 75 72 96 115 126 110 95 95 95 107 100 99 106 101 101 110 108 110 130 121 123 111 117 116 111
41 44 44 48 54 61 64 65 66 64 64 65 69 71 75 80 82 80 82 78 78 95 115 137 109 84 80 98 101 89 84 90 96 108 100 96 112 129 125 99 116 109 119
43 43 47 51 54 58 58 57 58 60 64 68 71 76 80 85 83 81 88 87 86 91 97 119 141 100 87 89 86 81 95 104 101 97 94 101 93 116 130 119 109 114 119
42 46 49 51 51 52 52 55 57 62 67 71 71 76 84 84 85 84 84 88 91 89 95 105 125 112 103 102 98 98 106 104 114 118 102 95 90 93 125 113 115 114 119
44 48 47 48 47 49 52 56 62 64 70 73 74 78 85 82 86 88 85 88 91 92 91 99 117 96 107 106 105 120 97 97 105 103 94 93 97 95 101 109 107 117 122
44 46 44 44 46 50 54 57 64 68 71 72 74 76 82 79 83 83 83 87 87 87 85 92 108 94 106 122 116 104 100 107 100 89 85 79 88 89 100 108 117 125 125
45 41 40 42 48 53 56 59 64 68 71 74 73 76 79 76 82 85 87 88 87 85 82 86 93 99 97 103 93 96 95 89 101 82 76 69 82 83 99 107 114 122 132
40 36 37 43 49 53 54 58 65 68 71 76 78 75 72 74 73 76 84 91 88 86 84 82 84 86 88 88 78 78 83 101 77 62 70 76 81 81 104 99 91 132 145
35 32 38 43 48 50 51 57 65 68 72 73 77 74 73 73 75 73 79 83 86 92 94 91 94 94 99 98 97 94 88 91 51 46 48 61 62 57 91 113 87 125 154
32 33 38 44 47 47 49 55 65 71 70 69 72 76 77 76 80 86 82 80 84 86 90 92 99 99 97 99 95 99 94 90 86 61 59 76 66 76 80 87 102 123 147
32 32 37 43 45 45 50 56 67 66 70 77 79 82 85 92 87 83 89 89 90 93 86 87 96 103 105 104 103 104 107 99 98 82 73 73 58 69 82 71 77 133 168
30 31 36 40 45 43 48 57 60 64 74 85 84 83 86 87 84 84 89 98 101 101 91 85 93 97 104 94 92 91 97 82 90 84 62 69 62 62 78 77 59 145 170
28 31 36 38 44 46 48 53 50 58 77 87 94 86 87 83 76 80 85 94 101 98 97 82 87 90 89 93 95 99 103 101 67 56 56 58 32 22 42 71 59 124 170
Wind_Direction_500mb
298 312 320 323 323 322 321 321 321 319 318 316 313 311 310 307 303 301 298 296 293 290 286 282 274 270 267 263 260 259 259 255 253 248 244 242 241 244 243 238 236 236 232
298 312 318 321 323 323 322 323 326 326 325 324 320 315 310 308 304 301 299 298 297 293 291 288 283 278 270 266 263 257 255 258 255 251 247 243 241 239 243 239 237 233 231
301 314 324 325 322 323 322 323 325 325 324 324 321 319 317 313 308 304 298 294 292 290 290 289 287 284 278 272 267 263 256 252 254 254 249 245 242 240 240 243 240 229 229
304 314 317 316 317 319 321 323 325 327 327 327 325 323 320 316 314 310 305 301 294 290 287 285 285 283 278 271 269 265 262 257 253 254 253 248 243 242 240 233 243 231 229
293 306 315 318 320 321 320 321 325 327 327 326 323 322 319 315 314 310 302 296 294 290 289 290 287 285 284 281 268 263 261 260 256 252 253 251 247 243 240 238 236 239 235
292 305 312 312 315 318 321 326 326 325 325 324 320 319 317 319 313 308 307 294 292 301 299 297 295 289 285 282 283 271 261 259 258 256 252 252 249 246 244 239 239 235 235
282 302 306 312 313 318 322 326 323 323 324 322 320 319 321 335 323 309 304 299 296 295 291 297 295 297 298 291 283 282 278 261 259 256 256 252 251 248 246 243 233 230 220
284 295 300 302 310 314 322 322 320 321 320 323 318 321 325 324 19 267 284 294 287 295 289 290 289 285 287 286 293 288 277 270 264 262 256 254 251 250 246 243 238 229 240
276 286 294 302 307 311 318 318 318 317 313 313 312 304 318 302 311 327 286 297 295 278 288 298 292 290 291 292 286 281 279 277 271 255 262 256 253 250 247 244 238 232 224
273 283 291 301 304 308 314 314 311 310 307 305 303 299 290 289 304 309 296 290 295 298 289 295 298 284 284 285 283 286 288 285 271 263 254 256 256 251 248 243 239 234 212
273 281 291 296 301 306 310 306 304 304 302 296 295 293 289 285 277 272 293 297 293 294 291 286 294 288 287 282 283 288 288 277 278 268 253 253 253 253 248 244 239 230 235
271 281 288 293 299 303 304 303 301 301 299 295 293 288 285 278 272 267 275 287 287 290 292 291 286 293 287 285 290 291 283 279 277 281 260 247 250 247 247 245 242 236 225
267 277 286 293 299 300 301 302 303 302 299 294 289 286 281 276 278 274 271 280 289 291 286 284 289 287 288 287 287 287 286 286 275 267 264 247 246 248 245 244 242 240 234
266 275 282 290 296 299 303 304 302 301 299 293 290 287 287 284 282 276 268 271 282 285 288 284 281 281 279 284 285 283 285 281 266 264 269 261 243 245 245 246 240 238 238
265 274 283 291 295 300 302 302 302 303 298 295 293 290 288 285 279 274 270 264 262 275 281 286 283 276 279 279 281 270 274 276 269 265 267 266 255 241 243 242 240 235 228
267 277 285 292 297 300 302 302 304 303 298 296 292 291 288 286 279 274 273 269 264 260 266 274 278 283 285 266 266 273 272 264 262 264 261 267 259 244 243 246 240 234 232
268 279 286 292 298 302 303 305 307 303 300 298 296 294 291 286 277 273 272 270 269 265 265 266 270 279 275 280 281 282 268 265 264 259 264 257 252 253 241 241 238 232 226
268 277 285 293 300 303 307 309 307 305 302 300 300 295 293 289 283 278 274 271 270 268 268 271 273 275 279 280 277 272 275 279 271 259 257 255 260 254 244 241 241 231 224
266 274 285 296 302 306 306 308 307 306 304 303 301 297 297 294 289 284 279 277 274 272 270 269 274 275 276 275 281 280 274 274 259 270 252 252 263 261 240 234 237 227 228
264 276 291 301 304 305 308 311 310 308 307 305 303 299 298 293 289 289 284 278 276 274 273 270 273 276 278 284 285 282 279 270 266 257 256 262 266 262 243 233 230 226 221
263 279 296 300 302 305 309 312 310 310 309 307 304 302 297 293 288 284 281 278 274 271 270 269 271 274 276 282 281 285 274 272 260 256 268 273 283 263 245 229 235 226 216
264 284 294 300 301 302 308 311 314 312 309 307 309 305 299 299 294 290 282 275 271 270 266 264 267 267 270 275 282 284 287 280 280 276 280 279 274 249 252 236 243 229 209
266 283 293 297 298 303 308 313 314 310 309 310 312 313 310 300 296 296 294 282 274 268 265 267 268 267 271 274 278 280 283 286 291 279 283 288 292 264 239 249 244 229 223
266 280 291 295 298 307 309 312 311 313 318 323 318 312 304 302 297 296 293 288 286 279 275 271 267 268 267 272 271 269 272 276 281 281 287 284 286 272 229 237 242 219 213
266 283 291 295 299 305 308 312 320 325 325 322 316 311 308 306 303 301 293 289 285 280 280 270 267 269 267 262 267 269 267 263 270 271 267 279 286 285 245 260 270 208 202
268 284 291 297 302 309 312 324 327 326 324 319 320 315 310 308 307 304 298 293 287 282 278 277 274 277 268 266 264 255 257 254 251 272 273 267 290 310 284 268 259 202 196
Wind_Speed_850mb
19 21 25 29 35 38 41 42 44 43 43 43 44 48 51 53 55 58 62 61 60 62 66 67 74 77 77 76 77 81 79 78 78 76 79 77 78 80 88 90 87 79 69
19 23 26 31 38 43 46 46 48 51 52 52 51 50 52 55 57 60 64 65 64 65 62 64 67 69 77 77 76 80 82 81 83 83 81 84 86 85 93 101 101 87 76
21 23 29 36 42 47 50 50 51 53 55 56 59 61 61 61 61 62 63 66 67 66 65 64 63 63 65 73 80 76 82 86 89 86 87 85 91 91 94 101 116 95 82
21 24 29 35 42 47 49 49 50 55 58 62 68 69 70 70 69 66 68 68 68 71 70 68 69 69 64 65 72 82 82 85 90 93 90 89 93 99 100 100 97 95 88
22 26 33 39 44 48 50 51 53 57 63 67 69 74 78 80 76 72 65 60 59 62 66 63 62 64 69 66 68 75 84 89 92 96 97 96 93 98 106 110 114 106 84
24 28 35 41 45 49 49 52 56 56 61 65 73 78 76 84 72 53 64 57 46 48 65 70 65 63 66 68 72 66 80 88 92 97 103 102 101 100 104 114 121 118 110
29 31 37 43 47 50 50 50 53 56 58 61 72 76 88 41 69 52 50 41 48 68 61 61 73 73 68 67 60 71 70 76 94 97 101 107 108 106 103 116 110 113 105
32 36 38 42 46 48 45 46 50 56 59 57 54 69 39 65 6 16 39 61 52 54 67 52 51 59 71 76 85 75 69 71 71 93 102 108 112 112 108 111 128 134 132
37 39 41 42 45 45 45 46 50 55 59 58 49 36 30 25 78 41 38 55 40 41 66 84 74 78 86 71 77 81 86 77 81 82 91 105 111 114 113 111 131 145 127
40 41 42 42 43 43 45 51 54 60 63 65 57 51 46 54 30 71 57 85 94 66 67 90 81 72 76 76 89 102 107 97 84 86 90 98 108 115 116 115 116 139 145
44 44 40 41 43 47 48 55 60 62 65 63 58 58 62 64 60 57 100 83 87 76 73 85 110 101 106 96 93 90 92 82 97 88 97 95 101 110 113 115 124 142 144
45 43 41 42 45 51 56 62 66 68 66 66 65 65 69 65 54 52 68 114 86 104 104 104 101 110 84 87 108 116 104 105 108 100 102 112 105 103 113 114 120 124 146
44 41 42 45 49 57 62 65 68 69 69 70 69 70 70 77 81 70 65 100 113 127 100 107 114 105 113 103 104 110 114 105 97 87 91 112 113 116 109 118 115 126 126
40 42 43 45 52 59 65 69 71 71 68 69 68 66 73 80 81 83 75 72 96 115 126 110 95 95 95 107 100 99 106 101 101 110 108 110 130 121 123 111 117 116 111
41 44 44 48 54 61 64 65 66 64 64 65 69 71 75 80 82 80 82 78 78 95 115 137 109 84 80 98 101 89 84 90 96 108 100 96 112 129 125 99 116 109 119
43 43 47 51 54 58 58 57 58 60 64 68 71 76 80 85 83 81 88 87 86 91 97 119 141 100 87 89 86 81 95 104 101 97 94 101 93 116 130 119 109 114 119
42 46 49 51 51 52 52 55 57 62 67 71 71 76 84 84 85 84 84 88 91 89 95 105 125 112 103 102 98 98 106 104 114 118 102 95 90 93 125 113 115 114 119
44 48 47 48 47 49 52 56 62 64 70 73 74 78 85 82 86 88 85 88 91 92 91 99 117 96 107 106 105 120 97 97 105 103 94 93 97 95 101 109 107 117 122
44 46 44 44 46 50 54 57 64 68 71 72 74 76 82 79 83 83 83 87 87 87 85 92 108 94 106 122 116 104 100 107 100 89 85 79 88 89 100 108 117 125 125
45 41 40 42 48 53 56 59 64 68 71 74 73 76 79 76 82 85 87 88 87 85 82 86 93 99 97 103 93 96 95 89 101 82 76 69 82 83 99 107 114 122 132
40 36 37 43 49 53 54 58 65 68 71 76 78 75 72 74 73 76 84 91 88 86 84 82 84 86 88 88 78 78 83 101 77 62 70 76 81 81 104 99 91 132 145
35 32 38 43 48 50 51 57 65 68 72 73 77 74 73 73 75 73 79 83 86 92 94 91 94 94 99 98 97 94 88 91 51 46 48 61 62 57 91 113 87 125 154
32 33 38 44 47 47 49 55 65 71 70 69 72 76 77 76 80 86 82 80 84 86 90 92 99 99 97 99 95 99 94 90 86 61 59 76 66 76 80 87 102 123 147
32 32 37 43 45 45 50 56 67 66 70 77 79 82 85 92 87 83 89 89 90 93 86 87 96 103 105 104 103 104 107 99 98 82 73 73 58 69 82 71 77 133 168
30 31 36 40 45 43 48 57 60 64 74 85 84 83 86 87 84 84 89 98 101 101 91 85 93 97 104 94 92 91 97 82 90 84 62 69 62 62 78 77 59 145 170
28 31 36 38 44 46 48 53 50 58 77 87 94 86 87 83 76 80 85 94 101 98 97 82 87 90 89 93 95 99 103 101 67 56 56 58 32 22 42 71 59 124 170
Wind_Direction_850mb
298 312 320 323 323 322 321 321 321 319 318 316 313 311 310 307 303 301 298 296 293 290 286 282 274 270 267 263 260 259 259 255 253 248 244 242 241 244 243 238 236 236 232
298 312 318 321 323 323 322 323 326 326 325 324 320 315 310 308 304 301 299 298 297 293 291 288 283 278 270 266 263 257 255 258 255 251 247 243 241 239 243 239 237 233 231
301 314 324 325 322 323 322 323 325 325 324 324 321 319 317 313 308 304 298 294 292 290 290 289 287 284 278 272 267 263 256 252 254 254 249 245 242 240 240 243 240 229 229
304 314 317 316 317 319 321 323 325 327 327 327 325 323 320 316 314 310 305 301 294 290 287 285 285 283 278 271 269 265 262 257 253 254 253 248 243 242 240 233 243 231 229
293 306 315 318 320 321 320 321 325 327 327 326 323 322 319 315 314 310 302 296 294 290 289 290 287 285 284 281 268 263 261 260 256 252 253 251 247 243 240 238 236 239 235
292 305 312 312 315 318 321 326 326 325 325 324 320 319 317 319 313 308 307 294 292 301 299 297 295 289 285 282 283 271 261 259 258 256 252 252 249 246 244 239 239 235 235
282 302 306 312 313 318 322 326 323 323 324 322 320 319 321 335 323 309 304 299 296 295 291 297 295 297 298 291 283 282 278 261 259 256 256 252 251 248 246 243 233 230 220
284 295 300 302 310 314 322 322 320 321 320 323 318 321 325 324 19 267 284 294 287 295 289 290 289 285 287 286 293 288 277 270 264 262 256 254 251 250 246 243 238 229 240
276 286 294 302 307 311 318 318 318 317 313 313 312 304 318 302 311 327 286 297 295 278 288 298 292 290 291 292 286 281 279 277 271 255 262 256 253 250 247 244 238 232 224
273 283 291 301 304 308 314 314 311 310 307 305 303 299 290 289 304 309 296 290 295 298 289 295 298 284 284 285 283 286 288 285 271 263 254 256 256 251 248 243 239 234 212
273 281 291 296 301 306 310 306 304 304 302 296 295 293 289 285 277 272 293 297 293 294 291 286 294 288 287 282 283 288 288 277 278 268 253 253 253 253 248 244 239 230 235
271 281 288 293 299 303 304 303 301 301 299 295 293 288 285 278 272 267 275 287 287 290 292 291 286 293 287 285 290 291 283 279 277 281 260 247 250 247 247 245 242 236 225
267 277 286 293 299 300 301 302 303 302 299 294 289 286 281 276 278 274 271 280 289 291 286 284 289 287 288 287 287 287 286 286 275 267 264 247 246 248 245 244 242 240 234
266 275 282 290 296 299 303 304 302 301 299 293 290 287 287 284 282 276 268 271 282 285 288 284 281 281 279 284 285 283 285 281 266 264 269 261 243 245 245 246 240 238 238
265 274 283 291 295 300 302 302 302 303 298 295 293 290 288 285 279 274 270 264 262 275 281 286 283 276 279 279 281 270 274 276 269 265 267 266 255 241 243 242 240 235 228
267 277 285 292 297 300 302 302 304 303 298 296 292 291 288 286 279 274 273 269 264 260 266 274 278 283 285 266 266 273 272 264 262 264 261 267 259 244 243 246 240 234 232
268 279 286 292 298 302 303 305 307 303 300 298 296 294 291 286 277 273 272 270 269 265 265 266 270 279 275 280 281 282 268 265 264 259 264 257 252 253 241 241 238 232 226
268 277 285 293 300 303 307 309 307 305 302 300 300 295 293 289 283 278 274 271 270 268 268 271 273 275 279 280 277 272 275 279 271 259 257 255 260 254 244 241 241 231 224
266 274 285 296 302 306 306 308 307 306 304 303 301 297 297 294 289 284 279 277 274 272 270 269 274 275 276 275 281 280 274 274 259 270 252 252 263 261 240 234 237 227 228
264 276 291 301 304 305 308 311 310 308 307 305 303 299 298 293 289 289 284 278 276 274 273 270 273 276 278 284 285 282 279 270 266 257 256 262 266 262 243 233 230 226 221
263 279 296 300 302 305 309 312 310 310 309 307 304 302 297 293 288 284 281 278 274 271 270 269 271 274 276 282 281 285 274 272 260 256 268 273 283 263 245 229 235 226 216
264 284 294 300 301 302 308 311 314 312 309 307 309 305 299 299 294 290 282 275 271 270 266 264 267 267 270 275 282 284 287 280 280 276 280 279 274 249 252 236 243 229 209
266 283 293 297 298 303 308 313 314 310 309 310 312 313 310 300 296 296 294 282 274 268 265 267 268 267 271 274 278 280 283 286 291 279 283 288 292 264 239 249 244 229 223
266 280 291 295 298 307 309 312 311 313 318 323 318 312 304 302 297 296 293 288 286 279 275 271 267 268 267 272 271 269 272 276 281 281 287 284 286 272 229 237 242 219 213
266 283 291 295 299 305 308 312 320 325 325 322 316 311 308 306 303 301 293 289 285 280 280 270 267 269 267 262 267 269 267 263 270 271 267 279 286 285 245 260 270 208 202
268 284 291 297 302 309 312 324 327 326 324 319 320 315 310 308 307 304 298 293 287 282 278 277 274 277 268 266 264 255 257 254 251 272 273 267 290 310 284 268 259 202 196